Location: Feydey
(46.3431°N, 7.0106°E)
Time: 02:55:55
(UTC+00:00)

SL-16 R/B - Visible Passes

Search period start: 23 October 2021 00:00
Search period end: 02 November 2021 00:00
Orbit: 840 x 850 km, 71.0° (Epoch: 22 October)

Date Brightness Start Highest point End Pass type
(mag) Time Alt. Az. Time Alt. Az. Time Alt. Az.
23 Oct 4.5 05:14:45 10° N 05:18:50 20° NE 05:22:55 10° E visible
24 Oct 4.5 05:00:39 10° N 05:04:42 19° NE 05:08:42 10° E visible
25 Oct 4.6 04:46:34 10° N 04:50:33 19° NE 04:54:30 10° E visible
26 Oct 4.6 04:32:30 10° N 04:36:23 18° NE 04:40:16 10° E visible
27 Oct 4.6 04:18:25 10° N 04:22:14 18° NE 04:26:03 10° E visible
28 Oct 4.7 04:04:20 10° N 04:08:05 17° NE 04:11:49 10° E visible
29 Oct 4.7 03:50:16 10° N 03:53:56 17° NE 03:57:36 10° E visible
29 Oct 2.5 05:33:19 10° NNW 05:39:03 77° ENE 05:44:45 10° SSE visible
30 Oct 4.7 03:36:11 10° N 03:39:47 17° NE 03:43:21 10° E visible
30 Oct 2.5 05:19:13 10° NNW 05:24:56 74° ENE 05:30:37 10° SSE visible
31 Oct 4.7 03:22:07 10° N 03:25:37 16° NE 03:29:07 10° ENE visible
31 Oct 2.5 05:05:05 10° NNW 05:10:49 72° ENE 05:16:29 10° SSE visible
01 Nov 4.7 03:08:02 10° N 03:11:28 16° NE 03:14:53 10° ENE visible
01 Nov 2.5 04:50:58 10° NNW 04:56:42 70° ENE 05:02:21 10° SE visible
